TimeCDT,TemperatureF,Dew PointF,Humidity,Sea Level PressureIn,VisibilityMPH,Wind Direction,Wind SpeedMPH,Gust SpeedMPH,PrecipitationIn,Events,Conditions,WindDirDegrees,DateUTC
12:53 AM,75.9,72.0,87,29.72,10.0,WNW,4.6,-,N/A,,Clear,290,2013-06-29 05:53:00
1:53 AM,75.9,72.0,87,29.72,10.0,WNW,4.6,-,N/A,,Unknown,300,2013-06-29 06:53:00
3:53 AM,73.9,69.1,85,29.73,10.0,NW,3.5,-,N/A,,Clear,320,2013-06-29 08:53:00
4:53 AM,72.0,69.1,91,29.73,10.0,Calm,Calm,-,N/A,,Clear,0,2013-06-29 09:53:00
5:53 AM,71.1,68.0,90,29.73,10.0,Calm,Calm,-,N/A,,Partly Cloudy,0,2013-06-29 10:53:00
6:36 AM,73.4,68.0,83,29.75,10.0,Calm,Calm,-,N/A,,Partly Cloudy,0,2013-06-29 11:36:00
6:53 AM,73.9,68.0,82,29.73,10.0,Calm,Calm,-,N/A,,Partly Cloudy,0,2013-06-29 11:53:00
7:53 AM,78.1,69.1,74,29.74,10.0,Calm,Calm,-,N/A,,Clear,0,2013-06-29 12:53:00
8:53 AM,82.9,66.9,58,29.75,10.0,NW,4.6,-,N/A,,Clear,320,2013-06-29 13:53:00
9:53 AM,86.0,64.9,49,29.74,10.0,Variable,4.6,-,N/A,,Clear,0,2013-06-29 14:53:00
10:53 AM,87.1,62.1,43,29.75,10.0,WNW,9.2,-,N/A,,Clear,300,2013-06-29 15:53:00
11:53 AM,89.1,59.0,36,29.74,10.0,WNW,8.1,-,N/A,,Partly Cloudy,300,2013-06-29 16:53:00
12:53 PM,90.0,55.0,30,29.73,10.0,WNW,8.1,-,N/A,,Partly Cloudy,300,2013-06-29 17:53:00
1:53 PM,87.1,57.9,37,29.72,10.0,NNW,6.9,16.1,N/A,,Mostly Cloudy,330,2013-06-29 18:53:00
2:53 PM,88.0,57.9,36,29.72,10.0,North,9.2,-,N/A,,Mostly Cloudy,360,2013-06-29 19:53:00
3:53 PM,90.0,57.0,33,29.69,10.0,NW,9.2,-,N/A,,Partly Cloudy,320,2013-06-29 20:53:00
4:53 PM,89.1,55.9,32,29.69,10.0,NNW,10.4,18.4,N/A,,Clear,330,2013-06-29 21:53:00
5:53 PM,88.0,57.9,36,29.68,10.0,NW,8.1,-,N/A,,Clear,320,2013-06-29 22:53:00
6:53 PM,86.0,60.1,41,29.68,10.0,NW,4.6,-,N/A,,Clear,320,2013-06-29 23:53:00
7:53 PM,82.9,61.0,47,29.69,10.0,Calm,Calm,-,N/A,,Partly Cloudy,0,2013-06-30 00:53:00
8:53 PM,81.0,60.1,49,29.70,10.0,WNW,3.5,-,N/A,,Scattered Clouds,290,2013-06-30 01:53:00
9:00 PM,-9999,-9999,N/A,-9999,-9999.0,North,-9999.0,-,N/A,,Unknown,0,2013-06-30 02:00:00
9:53 PM,75.9,63.0,64,29.72,10.0,WNW,3.5,-,N/A,,Clear,300,2013-06-30 02:53:00
10:53 PM,73.0,64.0,73,29.72,10.0,West,3.5,-,N/A,,Clear,270,2013-06-30 03:53:00
11:53 PM,72.0,63.0,73,29.71,10.0,Calm,Calm,-,N/A,,Clear,0,2013-06-30 04:53:00